Location: Willow Grove Park
(46.1754°N, 123.0885°W)
Time: 10:23:06
(UTC-07:00)

Envisat - Visible Passes

Search period start: 22 October 2019 00:00
Search period end: 01 November 2019 00:00
Orbit: 764 x 766 km, 98.1° (Epoch: 22 October)

Date Brightness Start Highest point End Pass type
(mag) Time Alt. Az. Time Alt. Az. Time Alt. Az.
22 Oct 3.2 19:18:09 10° S 19:23:13 78° WSW 19:28:21 10° NNW visible
22 Oct 6.3 21:02:47 10° W 21:03:05 10° W 21:03:22 10° W visible
23 Oct 3.2 18:41:38 10° SE 18:46:32 51° ENE 18:51:27 10° N visible
23 Oct 5.5 20:21:55 10° SW 20:25:50 22° W 20:29:47 10° NW visible
24 Oct 6.3 06:49:22 10° NE 06:52:06 14° E 06:54:49 10° ESE visible
24 Oct 4.1 19:43:56 10° S 19:48:48 46° W 19:53:42 10° NNW visible
25 Oct 3.0 19:06:53 10° SSE 19:11:57 85° ENE 19:17:04 10° NNW visible
25 Oct 6.1 20:49:20 10° WSW 20:51:39 13° W 20:53:58 10° WNW visible
26 Oct 3.4 18:30:35 10° SE 18:35:19 41° ENE 18:40:04 10° N visible
26 Oct 5.1 20:10:10 10° SSW 20:14:28 27° W 20:18:48 10° NW visible
27 Oct 6.5 06:39:08 10° ENE 06:40:40 11° E 06:42:12 10° ESE visible
27 Oct 3.7 19:32:30 10° S 19:37:29 58° W 19:42:31 10° NNW visible
28 Oct 2.9 18:55:41 10° SSE 19:00:42 69° ENE 19:05:47 10° N visible
28 Oct 5.8 20:37:04 10° SW 20:40:15 16° W 20:43:25 10° NW visible
29 Oct 6.0 07:02:51 10° NE 07:06:31 20° E 07:10:09 10° SE visible
29 Oct 4.7 19:58:31 10° SSW 20:03:07 34° W 20:07:44 10° NNW visible
30 Oct 3.3 19:21:08 10° S 19:26:12 72° WSW 19:31:18 10° NNW visible
31 Oct 3.1 18:44:32 10° SSE 18:49:28 55° ENE 18:54:27 10° N visible
31 Oct 5.5 20:25:06 10° SW 20:28:50 20° W 20:32:36 10° NW visible
